SCOUT A DEB, 2702

Orbit data source: Space-Track

SCOUT A DEB, 2702 is space debris in LEO originally from a launch on Thu, 18 Aug 1966 UTC launched from the Air Force Western Test Range (AFWTR). Debris objects in space refer to the collection of defunct objects orbiting the Earth. Examples of debris include non-operational satellites, rocket bodies, and fragments generated from explosions, collisions, or faulty payload assembly.

Loading next visibility...
Identifier
2702, 1966-076D
Orbit
LEO
Country
Flag of USUS
Related business
Manufacturer
Unknown
Mission
Spacecraft
Bus & Motor
Unknown
Mass
Unknown
Launch date (UTC)
1966-08-18 (60 years ago)
Launch vehicle
Unknown
Launch site
Air Force Western Test Range (AFWTR)
Object type
Payload
Rocket body
Debris
Shape & HBR
Unknown shape, 0.1 m
Radar Cross Section
Small (<0.1 m²)

Expand to show TLE details & history
Last TLE update: 4 days ago

TLE from 4 days ago
0 SCOUT A DEB
1 02702U 66076D   26121.39708051  .00000123  00000-0  20784-3 0  9991
2 02702  88.5613 264.4883 0088926  49.2191 339.1613 13.36556565890084
Epoch: 2026-05-01T09:31Z
TLE epoch observation values (Epoch: 2026-05-01T09:31:47.756Z)
Latitude
28.0444°
Longitude
-97.02797°
Altitude
1,063.35 km
Speed
7.353 km/s
True Right ascension
17h 41m 00s
True Declination
27° 54' 28"
Sunlit
Object was in daylight at epoch
Visualization orbit readout
Latitude
Unknown
Longitude
Unknown
Altitude
Unknown
Speed
Unknown
Apparent Right ascension
Unknown
Apparent Declination
Unknown
Sunlit
N/A
Visualization observer readout
Local Sidereal Time
20:57:49
Azimuth
Unknown
Elevation
Unknown
Doppler factor
Unknown
Orbital elements
Apogee altitude
1,185.879 km
Perigee altitude
1,052.538 km
Semi-major axis
7,497.345 km
Eccentricity
0.00889
Inclination
88.5613°
RAAN
264.4883°
Arg. of periapsis
49.2191°
True anomaly
338.795°
Mean anomaly
339.1613°
Eccentric anomaly
338.97853°
Mean motion
3.34335 °/min
Orbital period
107.68 mins
BSTAR
0.00020784
Loading maneuver chart data...
Computing Atmospheric mass density...
Loading historical data...
Loading historical data...
Loading historical data...
Loading historical data...
Loading historical data...
Loading historical data...
Loading historical data...

Documentation

Showing up to 5 results
|